Regional Weather Roundup
Issued by NWS State College, PA

Home | Current Version | Previous Version | Text Only | Print | Product List | Glossary On
Versions: 1 2 3 4 5 6 7 8 9 10 11 12 13 14 15 16 17 18 19 20 21 22 23 24 25 26 27 28 29 30 31 32 33 34 35 36 37 38 39 40 41 42 43 44 45 46 47 48 49 50
000
ASUS41 KCTP 271810
RWRCTP

REGIONAL WEATHER ROUNDUP
NATIONAL WEATHER SERVICE STATE COLLEGE PA
100 PM EST FRI FEB 27 2015

Note: "fair" indicates few or no clouds below 12,000 feet with no
significant weather and/or obstructions to visibility.

* = STATION THAT DOES NOT REPORT PRECIPITATION /E.G. RAIN...SNOW...ETC/
    THUNDER OR FOG.

PAZ002>004-007>009-013>016-020>023-029>032-271900-
WESTERN PENNSYLVANIA

CITY           SKY/WX    TMP DP  RH WIND       PRES   REMARKS
ERIE           SUNNY     11  -1  58 W7        30.56R WCI   0
MEADVILLE        N/A     10  -4  53 N6        30.47R WCI   0
FRANKLIN*      SUNNY     10  -6  48 NW5G17    30.46R WCI   2
NEW CASTLE     FAIR      12  -3  51 W5        30.53R WCI   4
BEAVER COUNTY  SUNNY     14  -6  41 NW8       30.50R WCI   3
BUTLER*        SUNNY     12  -2  52 NW8       30.50S WCI   1
PITTSBURGH INT MOSUNNY   14  -2  49 VRB6      30.49R WCI   5
PITTSBURGH     MOSUNNY   15  -2  46 W9        30.47S WCI   3
INDIANA*       PTSUNNY   14   1  57 W9        30.47S WCI   2
LATROBE        PTSUNNY   14   5  67 W12       30.50R WCI   0
WASHINGTON CO* MOSUNNY   16   1  53 SW8       30.51S WCI   5
$$

PAZ004>006-010>012-017>019-024>028-033>037-041-042-045-046-049>053-271900-
CENTRAL PENNSYLVANIA

CITY           SKY/WX    TMP DP  RH WIND       PRES   REMARKS
BRADFORD       MIX PCPN  11  -4  51 NW6       30.32S WCI   1
DUBOIS         PTSUNNY   13   1  59 W12G24    30.36S WCI  -1
CLEARFIELD     MIX PCPN  17   3  54 W8        30.39R WCI   7
JOHNSTOWN      CLOUDY    12   2  64 W8G18     30.32S WCI   0
ALTOONA        SUNNY     18   3  52 NW10      30.38S WCI   6
STATE COLLEGE  MOSUNNY   19   5  53 W14       30.39F WCI   6
WILLIAMSPORT   MOSUNNY   31   3  30 SW9       30.42F
SELINSGROVE    SUNNY     23   4  44 CALM      30.44F
FT INDIANTOWN  SUNNY     23   2  40 VRB5G17   30.42F
CAPITAL CITY   MOSUNNY   25   5  42 N9        30.43F
HARRISBURG     MOSUNNY   25   7  46 NW8       30.43F
YORK           SUNNY     24   8  50 W8        30.42F
$$

PAZ038>040-043-044-047-048-054-055-060>062-067>071-271900-
EASTERN PENNSYLVANIA

CITY           SKY/WX    TMP DP  RH WIND       PRES   REMARKS
SCRANTON       MOSUNNY   20   2  45 NE5       30.37F WCI  13
MOUNT POCONO     N/A    N/A N/A N/A MISG      30.26F
ALLENTOWN      SUNNY     25   2  37 NW9       30.39F
QUAKERTOWN*    CLEAR     23   3  42 NW7       30.40S WCI  15
READING        SUNNY     25   2  37 NW8       30.41F
LANCASTER      SUNNY     23   6  48 NW7       30.42S WCI  15
COATESVILLE    CLEAR     25  10  54 NW9       30.39F
POTTSTOWN      SUNNY     25   5  42 N7        30.43S
BLUE BELL      SUNNY     28   9  43 W7        30.40F
DOYLESTOWN     SUNNY     24   5  44 NW7       30.39F
WILLOW GROVE   NOT AVBL
NORTH PHILA    SUNNY     29   7  39 MISG      30.43S
PHILADELPHIA   MOSUNNY   29   9  43 NW13G18   30.43F
$$



USA.gov is the U.S. government's official web portal to all federal, state and local government web resources and services.